EXPRESS-AMU1

Last updated on Thu Nov 21 2024 00:02:43 GMT+0000 (Coordinated Universal Time)

1 41191U 15082A 24324.94507646 .00000157 00000+0 00000+0 0 9999 2 41191 0.0249 60.7667 0003204 192.5617 182.4853 1.00274612 32509
UTC large
Height (km)
Speed (km/s)
/
Latitude / Longitude
Inclination (degrees)
Orbital Period (minutes)
Azimuth
Elevation
Range (km)
Doppler Factor

Next 0 passes for location: London (51.5072 / 0.1276)

Sorry there are no passes over London.